Regional Weather Roundup
Issued by NWS

Home | Current Version | Previous Version | Text Only | Print | Product List | Glossary On
Versions: 1 2 3 4 5 6 7 8 9 10 11 12 13 14 15 16 17 18 19 20 21 22 23 24 25 26 27 28 29 30 31 32 33 34 35 36 37 38 39 40 41 42 43 44 45 46 47 48 49 50
000
ASUS43 KBIS 231710
RWRND

NORTH DAKOTA REGIONAL WEATHER ROUNDUP
NATIONAL WEATHER SERVICE BISMARCK ND
1100 AM CST THU FEB 23 2017

NOTE: "FAIR" INDICATES FEW OR NO CLOUDS BELOW 12,000 FEET WITH NO
SIGNIFICANT WEATHER AND/OR OBSTRUCTIONS TO VISIBILITY.


NDZ001>003-009>011-017-231800-
NORTHWEST NORTH DAKOTA

CITY           SKY/WX    TMP DP  RH WIND       PRES   REMARKS
WILLISTON      CLOUDY    26  23  88 N14       30.08R WCI  14
MINOT          CLOUDY    23  17  78 N13       30.09R WCI  11
MINOT AFB      CLOUDY    21  16  79 NE9       30.09R WCI  11
$$

NDZ018>021-031>035-040>046-231800-
SOUTHWEST NORTH DAKOTA

CITY           SKY/WX    TMP DP  RH WIND       PRES   REMARKS
BISMARCK       PTSUNNY   31  24  75 E8        30.03S
DICKINSON      LGT SNOW  28  26  92 NE8       29.96F FOG     WCI  20
GARRISON         N/A     23  19  85 NE14G26   30.04R WCI  11
HETTINGER ARPT CLOUDY    30  25  81 NE13      29.96F HAZE    WCI  20
$$

NDZ004>008-012>016-024-026-027-054-231800-
NORTHEAST NORTH DAKOTA

CITY           SKY/WX    TMP DP  RH WIND       PRES   REMARKS
GRAND FORKS    CLOUDY    28  18  66 NE14      30.07R WCI  17
GRND FRKS AFB  CLOUDY    27  22  82 N12       30.08R WCI  17
DEVILS LAKE    CLOUDY    26  23  88 NE13      30.06R WCI  15
$$

NDZ022-023-025-028>030-036>039-047>053-231800-
SOUTHEAST NORTH DAKOTA

CITY           SKY/WX    TMP DP  RH WIND       PRES   REMARKS
FARGO          CLOUDY    30  22  72 N15G24    30.05R WCI  19
JAMESTOWN      CLOUDY    30  23  75 NE7       30.01S
$$




USA.gov is the U.S. government's official web portal to all federal, state and local government web resources and services.